Location: Holyhead Bay
(53.3667°N, 4.6667°W)
Time: 06:13:48
(UTC+00:00)

Cosmos 44 Rocket - Pass Details

Date: 24 November 2020
Orbit: 639 x 751 km, 65.1° (Epoch: 23 January)

Event Time Altitude Azimuth Distance (km) Brightness Sun altitude
Rises 19:26:23 0° 315° (NW) 3,144 7.3 -28.5°
Reaches altitude 10° 19:28:47 10° 319° (NW) 2,236 6.4 -28.8°
Enters shadow 19:32:07 39° 339° (NNW) 1,111 4.4 -29.3°
